UFO 4 (USA 108)

Last updated on Mon Oct 14 2024 00:02:37 GMT+0000 (Coordinated Universal Time)

1 23467U 95003A 24287.54979854 -.00000018 00000+0 00000+0 0 9991 2 23467 9.7089 15.1087 0005499 188.2894 189.4567 1.00274239108823
UTC large
Height (km)
Speed (km/s)
/
Latitude / Longitude
Inclination (degrees)
Orbital Period (minutes)
Azimuth
Elevation
Range (km)
Doppler Factor

Next 0 passes for location: London (51.5072 / 0.1276)

Sorry there are no passes over London.